Regional Weather Roundup
Issued by NWS Wakefield, VA

Home | Current Version | Previous Version | Text Only | Print | Product List | Glossary Off
Versions: 1 2 3 4 5 6 7 8 9 10 11 12 13 14 15 16 17 18 19 20 21 22 23 24 25 26 27 28 29 30 31 32 33 34 35 36 37 38 39 40 41 42 43 44 45 46 47 48 49 50

000
ASUS41 KAKQ 011210
RWRAKQ

REGIONAL WEATHER ROUNDUP
NATIONAL WEATHER SERVICE WAKEFIELD VA
800 AM EDT WED OCT 01 2014

Note: "fair" indicates few or no clouds below 12,000 feet with no
significant weather and/or obstructions to visibility. * = Denotes
station may not report precipitation (e.g., rain,snow,etc.),
thunder or fog.

VAZ042-051-052>054-056-011300-
NORTHERN VIRGINIA

CITY           SKY/WX    TMP DP  RH WIND       PRES   REMARKS
WASH NATIONAL  LGT RAIN  66  61  84 E6        30.01R
DULLES         CLOUDY    62  61  96 E5        30.00R FOG
FORT BELVOIR   CLOUDY    64  61  88 CALM      30.00S
QUANTICO       CLOUDY    65  62  90 NE5       30.00R FOG
FREDERICKSBRG* MOCLDY    65  65 100 CALM      29.99R FOG
STAFFORD*      MOCLDY    64  64 100 CALM      30.03S
WARRENTON      CLOUDY    65  65 100 CALM      29.99R FOG
CULPEPER*      CLOUDY    63  63 100 CALM      30.01R FOG
MANASSAS*      NOT AVBL
LEESBURG*      LGT RAIN  63  63 100 NE5       30.01R
WINCHESTER     FOG       61  61 100 CALM      30.01R VSB 1/4
FRONT ROYAL*   CLOUDY    61  61 100 CALM      30.00R VSB 1/4
LURAY*         CLOUDY    63  63 100 CALM      30.01R FOG
$$

VAZ048-049-060>072-079>083-011300-
CENTRAL AND SOUTH CENTRAL VIRGINIA...AND NORTH CENTRAL NORTH CAROLINA

CITY           SKY/WX    TMP DP  RH WIND       PRES   REMARKS
RICHMOND       PTSUNNY   63  60  90 N5        29.99R FOG
CHESTERFIELD*  CLOUDY    61  52  72 CALM      30.01R
PETERSBURG*    CLOUDY    58  57  97 CALM      30.00R FOG
HANOVER        FOG       62  61  96 CALM      30.01R VSB 1/2
TAPPAHANNOCK*  CLOUDY    63  61  95 CALM      30.00R FOG
CHARLOTTSVILLE CLOUDY    62  60  93 N3        30.00R FOG
ORANGE*        FOG       61  61 100 N3        30.01R VSB 1
LOUISA*        CLOUDY    63  61  94 CALM      29.99R FOG
FARMVILLE*     CLOUDY    63  61  94 CALM      29.98R FOG
CREWE*         CLOUDY    58  56  95 CALM      29.99R VSB<1/4
FORT PICKETT*  CLOUDY    58  58  97 N6        30.00R VSB 1/2
LUNENBURG*     CLOUDY    59  59  99 CALM      29.99R
SOUTH HILL*    CLOUDY    61  61 100 CALM      30.03S FOG
LAWRENCEVILLE* CLOUDY    59  59 100 CALM      29.98R VSB<1/4
ROANOKE RAPIDS FOG       59  59 100 CALM      29.98S VSB<1/4
RALEIGH        FOG       61  57  88 NE3       29.99S VSB 1/16
$$

VAZ088>098-011300-
SOUTHEAST VIRGINIA

CITY           SKY/WX    TMP DP  RH WIND       PRES   REMARKS
NORFOLK        SUNNY     68  62  81 N8        29.95R
VIRGINIA BEACH MOSUNNY   68  63  84 N6        29.94R
NORFOLK NAVAL  MOSUNNY   70  64  81 N13       29.97R
WEST POINT*    MOSUNNY   63  61  93 CALM      29.99R
NEWPORT NEWS   SUNNY     66  62  87 N5        29.97R FOG
LANGLEY AFB    MOSUNNY   66 N/A N/A NE8       29.98R
FORT EUSTIS    SUNNY     64 N/A N/A VRB2      29.96R
WILLIAMSBURG*  SUNNY     64  63  94 CALM      29.98R
HR EXEC AP*    CLOUDY    57  55  94 CALM      29.98R VSB<1/4
FRANKLIN*      CLOUDY    61 N/A N/A CALM      29.98R VSB<1/4
WAKEFIELD      FOG       59  58  96 CALM      29.99R VSB<1/4
$$

VAZ020-022-025-037-045-011300-
WEST CENTRAL AND SOUTHWEST VIRGINIA

CITY           SKY/WX    TMP DP  RH WIND       PRES   REMARKS
STAUNTON*      MOCLDY    60  57  91 CALM      30.03R FOG
HOT SPRINGS VA MOCLDY    55  40  59 W3        30.09R
LYNCHBURG      CLOUDY    63  63 100 CALM      30.02R FOG
DANVILLE       CLOUDY    64  62  93 CALM      30.00R FOG
SOUTH BOSTON*  NOT AVBL
MARTINSVILLE   FOG       60  60 100 CALM      30.03R VSB 1/4
ROANOKE        PTCLDY    56  54  93 CALM      30.03R
BLACKSBURG     FOG       52  52 100 CALM      30.06R VSB 1/4
DUBLIN*        CLEAR     51  51 100 CALM      30.05R FOG
MARION*        CLEAR     52  50  94 CALM      30.08R FOG
HILLSVILLE*    CLEAR     51  50  97 SW6       30.06R
RICHLANDS*     MOSUNNY   61  53  75 S3        30.05R
WISE*          CLEAR     57  48  72 CALM      30.06R
ABINGDON*      PTCLDY    54  53  99 CALM      30.04S
$$

MDZ021>025-VAZ099-100-011300-
SOUTHERN MARYLAND AND THE DELMARVA PENINSULA

CITY           SKY/WX    TMP DP  RH WIND       PRES   REMARKS
PATUXENT RIVER PTSUNNY   64  61  90 NE5       29.99R
BAY BRIDGE APT   N/A     63  61  94 E3        30.00R
LEONARDTOWN    PTSUNNY   63  61  94 CALM      30.00R
DOVER          CLOUDY    63  63 100 N10       29.97R
GEORGETOWN     CLOUDY    65  62  90 E12       29.98R
EASTON         CLOUDY    64  64 100 NE12      30.03R
CAMBRIDGE      CLOUDY    63  59  88 NE6       29.99R
SALISBURY      CLOUDY    66  62  87 N5        29.97R
OCEAN CITY     PTSUNNY  N/A N/A N/A N6        29.96R
WALLOPS ISLAND CLOUDY    63  62  97 N8        29.97R FOG
ACCOMACK*      MOSUNNY   61  59  94 N6        29.97R
$$

NCZ012>017-030>032-011300-
EASTERN NORTH CAROLINA

CITY           SKY/WX    TMP DP  RH WIND       PRES   REMARKS
ELIZABETH CITY SUNNY     66  64  93 N7        29.96R
AHOSKIE*       FOG       58  57  99 CALM      29.98R VSB<1/4
EDENTON*       FOG       60  59  99 N3        29.96R VSB 3/4
CURRITUCK*     SUNNY     64  62  94 NW3       29.96R
KILL DEVIL HLS SUNNY     69  63  81 N6        29.93R
MANTEO         SUNNY     69  64  84 N8        29.94R
CAPE HATTERAS  MOSUNNY   68  66  93 NE9       29.92R
TARBORO*       FOG       57  56  97 CALM      29.99R VSB 1/4
GOLDSBORO      PTCLDY    61  61 100 CALM      29.96R FOG
WASHINGTON     SUNNY     60  59  98 CALM      29.97R
GREENVILLE     LGT RAIN  59  59 100 CALM      29.98S
NEW BERN       CLOUDY    65  63  93 N3        29.97R FOG
WILMINGTON     SUNNY     63  62  97 NE7       29.95R FOG
$$

VAZ048-011300-
ELSEWHERE

CITY           SKY/WX    TMP DP  RH WIND       PRES   REMARKS
HARRISBURG PA  CLOUDY    60  58  92 N3        30.03R FOG
BALTIMORE      CLOUDY    63  60  90 NE5       30.01R
ANNAPOLIS        N/A     65  60  84 MISG      30.00R
ANDREWS AFB    DRIZZLE   62  62  99 NE3       30.00R
WILMINGTON DE  CLOUDY    62  59  90 N6        30.01R
PHILADELPHIA   CLOUDY    64  58  80 NE6       30.01R
WILDWOOD NJ*   CLOUDY    63  57  82 NE8       29.99R
ATLANTIC CITY  CLOUDY    62  61  96 NE8       29.99R
HENDERSON NC   FOG       60  59  96 CALM      29.99R VSB<1/4
GREENSBORO     FOG       61  61 100 E3        29.99R VSB 1/8
ROCKY MOUNT    FOG       59  59 100 N5        29.98R VSB<1/4
FAYETTEVILLE   FOG       60  60 100 NE3       29.97R VSB 1/4
CHARLOTTE      PTCLDY    60  58  92 CALM      29.99R
$$

VAZ100-011300-
MARINE

STATION/POSITION TIME  TEMP    WIND        PRES    WAVE   SWELL
                       AIR SEA DIR/SP/G            HT/PER HT/PER
                 (UTC) (F)     (DEG/KT/KT) (MB)    (FT/S) (FT/S)
44066 TX TWR #4  1200   65 70   30/ 19/ 21 1013.4R
CAPE MAY NJ      1200   63 73   40/  8/ 12 1014.4F
LEWES DE         1200   65 69   40/ 15/ 16 1014.8R
15NM E FENWICK I 1200   69 70              1013.7R   4/ 6
OCEAN-CITY-INLET 1200   68 71   20/  8/ 13 1014.0R
WACHAPREAGUE VA  1200   63 72  340/  2/  5 1014.6R
THOMAS POINT MD  1200   64 72   50/ 10/ 12 1016.8R
GOOSES REEF MD   1200   64      80/ 10/ 12 1015.9R
COVE POINT MD    1200   63      40/  8/  9 1015.4R
SOLOMONS ISLAND  1200      72                N/A
BISHOPS HEAD MD  1200   63 71   30/ 11/ 13 1014.8R
PINEY POINT MD   1200           60/  3/  4   N/A
POTOMAC MD       1200   67      50/  8/ 10 1014.5R
CAMBRIDGE MD     1200   63 71   40/  7/ 10 1015.2R
LEWISETTA VA     1200   67 72   30/  4/  6 1014.9R
RAPPAHANNOCK LGT 1200           20/ 11/ 12 1015.1R
STINGRAY PT      1200   69      30/  8/ 10   N/A
YORK RVR RNG VA  1200   68      30/ 11/ 12 1014.2R
YORKTOWN VA      1200   65 73  330/  5/  6 1014.4R
JAMESTOWN VA     1200   63     360/  4/  6   N/A
DOMINION TERM VA 1200   67      60/  2/  3 1014.5R
KIPTOPEKE VA     1200      76   20/  6/  8   N/A
CHES BAY BRIDGE  1200   68 72   20/ 10/ 12 1013.6R
CHESAPEAKE LGHT  1100   69      20/ 15/ 16 1014.0R
WILLOUBY STN VA  1200   69      30/ 11/ 12 1013.1R
S CRANEY ISL VA  1200          350/  7/  9 1014.1R
CAPE HENRY BUOY  1200      73                N/A     3/14   2/14
1ST LANDING BUOY 1200   69      20/ 10/ 12 1013.8S
CAPE CHARLES BUO 1200      72                N/A     3/13   2/13
OFFSHORE WE BUOY 1200      72                N/A     3/ 4   2/12
64NM E OF VA BCH 1200   69 71   10/ 14/ 16 1012.7R   3/ 5   2/13
DUCK PIER NC     1200   70 72  360/ 14/ 15 1012.8R
44100 DUCK FRF   1200      72                N/A     3/13   2/13
44056 DUCK FRF   1200                        N/A     3/ 4
OREGON INLET NC  1200   70 74  360/  9/ 13 1013.3R
HATTERAS NC      1200   71 74   20/ 14/ 16 1013.6R
DIAMOND SHLS NC  1200   73     360/ 16/ 17 1012.5R   4/ 6   2/13
CAPE LOOKOUT NC  1100   68      10/ 10/ 13 1013.0R
$$


USA.gov is the U.S. government's official web portal to all federal, state and local government web resources and services.